FW2530 Weather Reports


time (UTC)temp
C
wind
direction
speed
KPH
gust
KPH
rain 1hr
cm
rain 24hr
cm
rain mn
cm
humidity
%
barometer
mb
20260506070525 8 234 0.0 6.4 0.00 0.18 0.05 77 1007.2
20260506062505 8 224 3.2 8.0 0.03 0.18 0.05 77 1006.7
20260506062003 8 224 3.2 8.0 0.03 0.18 0.05 77 1006.6
20260506061504 8 223 1.6 6.4 0.03 0.18 0.05 77 1006.8
20260506061004 8 224 1.6 6.4 0.03 0.18 0.05 77 1006.8
20260506060504 8 224 3.2 11.3 0.03 0.18 0.05 77 1006.9
20260506051003 8 227 4.8 14.5 0.03 0.15 0.03 78 1007.0
20260506050525 8 226 3.2 11.3 0.03 0.15 0.03 78 1006.9
20260506045004 8 245 4.8 11.3 0.05 0.15 0.03 79 1007.0
20260506044504 8 230 3.2 11.3 0.05 0.15 0.03 79 1007.1
20260506044004 8 187 4.8 11.3 0.05 0.15 0.03 79 1007.0
20260506043505 8 177 8.0 12.9 0.05 0.15 0.00 79 1006.9
20260506043005 8 175 8.0 17.7 0.05 0.15 0.00 79 1007.0
20260506042525 8 182 6.4 14.5 0.05 0.15 0.00 79 1007.0
20260506042004 8 187 8.0 12.9 0.05 0.15 0.00 79 1007.2
20260506041504 8 189 8.0 12.9 0.05 0.15 0.00 80 1007.4
20260506041004 8 192 8.0 12.9 0.05 0.15 0.00 80 1007.4
20260506040525 8 192 8.0 14.5 0.05 0.15 0.00 80 1007.4
20260506040004 8 192 8.0 14.5 0.05 0.15 0.00 80 1007.4
20260506035504 8 198 8.0 17.7 0.03 0.13 0.13 80 1007.4
20260506035004 8 208 8.0 12.9 0.03 0.13 0.13 81 1007.5
20260506034504 8 216 6.4 11.3 0.03 0.13 0.13 81 1007.5
20260506034004 8 219 4.8 11.3 0.00 0.10 0.10 81 1007.5
20260506033503 8 217 1.6 8.0 0.00 0.10 0.10 81 1007.6
20260506033005 8 216 3.2 6.4 0.00 0.10 0.10 81 1007.7
20260506032503 8 212 4.8 12.9 0.00 0.10 0.10 81 1007.8
20260506032025 8 211 4.8 11.3 0.00 0.10 0.10 81 1007.7
20260506031503 8 216 3.2 11.3 0.00 0.10 0.10 81 1007.8
20260506031003 8 221 3.2 8.0 0.00 0.10 0.10 81 1007.7
20260506030504 9 221 4.8 11.3 0.00 0.10 0.10 81 1007.7
20260506030003 8 222 4.8 8.0 0.00 0.10 0.10 81 1007.6
20260506025524 9 212 4.8 8.0 0.00 0.10 0.10 81 1007.5
20260506025004 9 188 4.8 11.3 0.00 0.10 0.10 81 1007.5
20260506024504 9 180 6.4 11.3 0.00 0.10 0.10 82 1007.3
20260506024003 9 178 6.4 14.5 0.00 0.10 0.10 82 1007.3
20260506023503 9 194 6.4 11.3 0.00 0.10 0.10 82 1007.3
20260506023004 9 212 6.4 14.5 0.00 0.10 0.10 82 1007.3
20260506022504 9 202 8.0 11.3 0.00 0.10 0.10 82 1007.4
20260506022004 9 185 8.0 12.9 0.00 0.10 0.10 82 1007.4
20260506021504 9 178 8.0 17.7 0.00 0.10 0.10 83 1007.4
20260506021004 9 164 9.7 14.5 0.00 0.10 0.10 83 1007.5
20260506020504 10 162 8.0 17.7 0.00 0.10 0.10 83 1007.4
20260506020004 10 174 6.4 17.7 0.00 0.15 0.10 83 1007.4
20260506015504 10 178 6.4 11.3 0.00 0.15 0.10 84 1007.5
20260506015004 10 185 6.4 12.9 0.00 0.15 0.10 84 1007.5
20260506014504 10 198 6.4 12.9 0.00 0.15 0.10 85 1007.5
20260506014003 10 213 4.8 19.3 0.00 0.18 0.10 85 1007.4
20260506013525 10 225 4.8 8.0 0.00 0.20 0.10 85 1007.3
20260506013004 10 252 4.8 8.0 0.00 0.20 0.10 85 1007.3
20260506012525 10 306 3.2 11.3 0.00 0.20 0.10 85 1007.3
20260506012004 10 342 1.6 6.4 0.00 0.20 0.10 85 1007.2
20260506011504 10 342 3.2 6.4 0.00 0.20 0.10 85 1007.1
20260506011024 10 342 3.2 6.4 0.00 0.20 0.10 84 1007.1
20260506010504 10 342 1.6 6.4 0.00 0.20 0.10 84 1006.9
20260506010004 10 342 1.6 4.8 0.00 0.20 0.10 84 1006.9
20260506005504 10 341 1.6 6.4 0.00 0.20 0.10 84 1006.9
20260506005004 10 341 1.6 4.8 0.00 0.20 0.10 84 1006.6
20260506004504 10 341 1.6 6.4 0.00 0.20 0.10 84 1006.7
20260506004004 10 341 3.2 6.4 0.00 0.20 0.10 84 1006.7
20260506003504 10 341 1.6 6.4 0.00 0.20 0.10 83 1006.6
20260506003003 10 340 3.2 6.4 0.00 0.20 0.10 83 1006.6
20260506002504 10 340 3.2 8.0 0.00 0.20 0.10 83 1006.5
20260506002004 10 340 1.6 8.0 0.00 0.20 0.10 83 1006.5
20260506001504 10 0 0.0 0.0 0.00 0.20 0.10 83 1006.4
20260506001004 10 0 0.0 0.0 0.00 0.20 0.10 83 1006.4
20260506000504 10 0 0.0 0.0 0.00 0.20 0.10 83 1006.2
20260506000004 10 0 0.0 0.0 0.00 0.20 0.10 82 1006.4
20260505235503 10 0 0.0 0.0 0.00 0.20 0.10 82 1006.3
20260505235003 10 0 0.0 0.0 0.00 0.20 0.10 82 1006.4
20260505234504 10 0 0.0 0.0 0.00 0.20 0.10 82 1006.1
20260505234004 10 0 0.0 0.0 0.00 0.20 0.10 82 1006.2
20260505233525 10 0 0.0 0.0 0.00 0.20 0.10 82 1006.3
20260505233004 10 0 0.0 0.0 0.00 0.20 0.10 81 1006.2
20260505232503 10 0 0.0 0.0 0.00 0.20 0.10 81 1006.3
20260505232025 10 0 0.0 0.0 0.00 0.20 0.10 81 1006.3
20260505231504 10 336 0.0 0.0 0.00 0.20 0.10 81 1006.4
20260505231004 10 336 0.0 4.8 0.00 0.20 0.10 81 1006.4
20260505230525 10 336 0.0 4.8 0.00 0.20 0.10 81 1006.4
20260505230004 10 336 1.6 0.0 0.00 0.20 0.10 81 1006.4
20260505225525 10 336 1.6 8.0 0.00 0.20 0.10 81 1006.5
20260505225024 10 336 1.6 4.8 0.00 0.20 0.10 81 1006.4
20260505224503 10 336 1.6 4.8 0.00 0.20 0.10 82 1006.5
20260505224003 10 336 1.6 6.4 0.00 0.20 0.10 81 1006.5
20260505223504 10 336 0.0 4.8 0.00 0.20 0.10 82 1006.4
20260505223003 10 336 0.0 4.8 0.00 0.20 0.10 82 1006.5
20260505222503 10 336 0.0 0.0 0.00 0.20 0.10 82 1006.5
20260505222003 10 336 0.0 4.8 0.00 0.20 0.10 82 1006.4
20260505221503 10 336 0.0 4.8 0.00 0.20 0.10 82 1006.5
20260505221003 10 336 0.0 1.6 0.00 0.20 0.10 83 1006.6
20260505220504 10 336 0.0 0.0 0.00 0.20 0.10 83 1006.6
20260505220024 10 336 0.0 6.4 0.00 0.20 0.10 83 1006.6
20260505215504 10 0 0.0 1.6 0.00 0.20 0.10 83 1006.6
20260505215003 10 336 0.0 0.0 0.00 0.20 0.10 83 1006.6
20260505214504 10 336 0.0 4.8 0.00 0.20 0.10 83 1006.6
20260505214004 10 336 0.0 4.8 0.00 0.20 0.10 83 1006.6
20260505213503 10 336 0.0 0.0 0.00 0.20 0.10 83 1006.6
20260505213003 10 336 1.6 1.6 0.00 0.20 0.10 83 1006.7
20260505212503 10 336 1.6 6.4 0.00 0.20 0.10 83 1006.8
20260505212025 10 336 1.6 6.4 0.00 0.20 0.10 83 1006.8
20260505211503 10 336 0.0 1.6 0.00 0.20 0.10 83 1006.7
20260505211003 10 336 1.6 4.8 0.00 0.20 0.10 83 1006.6
20260505210503 10 336 1.6 6.4 0.00 0.20 0.10 83 1006.7
20260505210003 10 336 0.0 6.4 0.00 0.20 0.10 83 1006.7
20260505205503 10 336 0.0 4.8 0.00 0.20 0.10 83 1006.7
20260505205003 10 335 1.6 4.8 0.00 0.20 0.10 83 1006.7
20260505204503 10 334 1.6 8.0 0.00 0.20 0.10 83 1006.7
20260505204003 10 333 1.6 8.0 0.00 0.20 0.10 83 1006.7
20260505203504 10 332 1.6 4.8 0.00 0.20 0.10 83 1006.7
20260505203004 10 331 1.6 8.0 0.00 0.20 0.10 83 1006.8
20260505202504 10 330 3.2 6.4 0.00 0.20 0.10 83 1006.8
20260505202003 10 331 3.2 12.9 0.00 0.20 0.10 82 1006.9
20260505201504 10 331 3.2 8.0 0.00 0.20 0.10 82 1006.9
20260505201024 10 331 3.2 11.3 0.00 0.20 0.10 82 1007.0
20260505200503 10 331 1.6 6.4 0.00 0.20 0.10 82 1006.9
20260505200004 10 332 1.6 6.4 0.00 0.20 0.10 82 1006.8
20260505195503 10 332 1.6 11.3 0.03 0.20 0.10 82 1006.9
20260505195004 10 332 1.6 6.4 0.03 0.20 0.10 82 1006.9
20260505194503 10 332 1.6 8.0 0.05 0.20 0.10 82 1006.8
20260505194003 10 332 1.6 6.4 0.05 0.20 0.10 81 1006.7
20260505193503 10 332 1.6 6.4 0.05 0.20 0.10 81 1006.7
20260505193003 10 336 3.2 6.4 0.05 0.20 0.10 80 1006.6
20260505192503 10 343 3.2 11.3 0.08 0.20 0.10 80 1006.4
20260505192003 10 351 1.6 8.0 0.08 0.20 0.10 80 1006.6
20260505191503 10 352 1.6 8.0 0.08 0.20 0.10 79 1006.4
20260505191004 10 354 0.0 8.0 0.08 0.20 0.10 79 1006.5
20260505190503 10 360 0.0 0.0 0.10 0.20 0.10 77 1006.3
20260505190003 11 359 1.6 4.8 0.10 0.20 0.10 77 1006.3
20260505185503 11 356 1.6 6.4 0.08 0.18 0.08 75 1006.4
20260505185003 11 351 1.6 8.0 0.08 0.18 0.08 74 1006.5
20260505184503 11 351 1.6 6.4 0.05 0.15 0.05 73 1006.5
20260505184003 11 351 1.6 6.4 0.05 0.15 0.05 73 1006.4
20260505183503 11 351 0.0 4.8 0.05 0.15 0.05 72 1006.5
20260505183003 11 351 0.0 1.6 0.05 0.15 0.05 71 1006.3
20260505182503 12 351 0.0 1.6 0.03 0.13 0.03 71 1006.4
20260505182003 12 351 1.6 4.8 0.03 0.13 0.03 70 1006.4
20260505181524 12 351 1.6 6.4 0.03 0.13 0.03 70 1006.5
20260505181003 12 351 1.6 6.4 0.03 0.13 0.03 70 1006.2
20260505180503 12 351 1.6 4.8 0.00 0.10 0.00 69 1006.2
20260505180004 12 350 1.6 6.4 0.00 0.10 0.00 69 1006.1
20260505175524 12 350 3.2 11.3 0.00 0.10 0.00 69 1006.0
20260505175003 12 348 3.2 8.0 0.00 0.10 0.00 68 1006.1
20260505174503 13 340 3.2 11.3 0.00 0.10 0.00 67 1005.7
20260505174003 13 331 3.2 12.9 0.00 0.10 0.00 67 1006.1
20260505173503 13 332 4.8 12.9 0.00 0.10 0.00 64 1006.0
20260505173003 13 350 4.8 11.3 0.00 0.10 0.00 63 1006.1
20260505172504 13 360 6.4 17.7 0.00 0.10 0.00 62 1006.0
20260505172004 13 360 4.8 17.7 0.00 0.10 0.00 63 1005.9
20260505171503 13 360 4.8 11.3 0.00 0.10 0.00 63 1005.9
20260505171004 13 360 4.8 12.9 0.00 0.10 0.00 63 1005.6
20260505170524 13 360 4.8 11.3 0.00 0.10 0.00 64 1005.3
20260505170003 13 360 6.4 11.3 0.00 0.10 0.00 63 1005.3
20260505165503 13 360 6.4 17.7 0.00 0.10 0.00 64 1005.2
20260505165003 13 354 6.4 17.7 0.00 0.10 0.00 64 1005.3
20260505164503 13 351 4.8 12.9 0.00 0.10 0.00 64 1005.1
20260505164026 13 359 4.8 11.3 0.00 0.10 0.00 66 1005.0
20260505163505 13 339 4.8 14.5 0.00 0.10 0.00 66 1005.2
20260505163026 13 328 4.8 17.7 0.00 0.10 0.00 67 1005.2
20260505162526 13 332 3.2 12.9 0.00 0.10 0.00 67 1005.2
20260505162005 13 358 1.6 1.6 0.00 0.10 0.00 67 1005.0
20260505161505 13 360 3.2 8.0 0.00 0.10 0.00 67 1004.9
20260505161005 13 360 4.8 8.0 0.00 0.10 0.00 68 1005.1
20260505160526 14 360 6.4 17.7 0.00 0.10 0.00 68 1005.2
20260505153026 13 360 8.0 20.9 0.00 0.10 0.00 67 1005.2
20260505152505 14 360 6.4 19.3 0.00 0.10 0.00 67 1005.3
20260505152005 14 360 6.4 20.9 0.00 0.10 0.00 68 1005.1
20260505151506 14 350 6.4 17.7 0.00 0.10 0.00 67 1005.1
20260505151005 14 335 8.0 19.3 0.00 0.10 0.00 67 1005.1
20260505150526 15 329 6.4 20.9 0.00 0.10 0.00 67 1004.7
20260505140505 13 360 6.4 12.9 0.00 0.10 0.00 72 1003.7
20260505125005 10 358 4.8 11.3 0.00 0.10 0.00 81 1002.8
20260505124526 9 358 4.8 11.3 0.00 0.10 0.00 81 1002.9
20260505124005 9 350 6.4 17.7 0.00 0.10 0.00 81 1002.7
20260505123504 9 339 6.4 17.7 0.00 0.10 0.00 81 1002.7
20260505123005 9 345 4.8 12.9 0.00 0.10 0.00 81 1002.5
20260505122505 9 360 6.4 12.9 0.00 0.10 0.00 81 1002.2
20260505122005 9 360 8.0 17.7 0.00 0.10 0.00 81 1002.1
20260505121505 10 360 8.0 24.1 0.00 0.10 0.00 81 1002.0
20260505121005 10 358 8.0 17.7 0.00 0.10 0.00 80 1002.1
20260505120505 10 359 9.7 17.7 0.00 0.10 0.00 79 1001.8
20260505120005 11 360 9.7 24.1 0.00 0.10 0.00 79 1002.0
20260505115505 11 357 8.0 20.9 0.00 0.10 0.00 79 1001.9
20260505115005 12 350 6.4 19.3 0.00 0.10 0.00 79 1001.6
20260505114504 13 351 6.4 17.7 0.00 0.10 0.00 79 1001.1
20260505114004 13 350 4.8 19.3 0.00 0.10 0.00 80 1001.0
20260505113505 14 345 4.8 14.5 0.00 0.10 0.00 81 1000.7
20260505113005 14 354 8.0 17.7 0.00 0.10 0.00 82 1000.6
20260505112504 14 359 12.9 25.7 0.00 0.10 0.00 82 1000.4
20260505112005 14 360 9.7 37.0 0.00 0.10 0.00 82 1000.5
20260505111505 14 360 6.4 17.7 0.00 0.10 0.00 82 1000.3
20260505111004 14 357 9.7 32.2 0.00 0.10 0.00 82 1000.3
20260505110504 14 339 6.4 24.1 0.00 0.10 0.00 82 1000.1
20260505102004 15 330 6.4 20.9 0.00 0.10 0.00 81 999.8
20260505101504 15 348 6.4 24.1 0.00 0.10 0.00 81 999.9
20260505101004 15 359 6.4 11.3 0.00 0.10 0.00 81 999.9
20260505100504 15 355 6.4 25.7 0.00 0.10 0.00 81 999.9
20260505100004 15 339 6.4 19.3 0.00 0.10 0.00 81 999.9
20260505095505 15 324 6.4 19.3 0.00 0.10 0.00 81 999.8
20260505095025 15 310 8.0 25.7 0.00 0.10 0.00 81 999.7
20260505094505 15 295 6.4 20.9 0.00 0.10 0.00 81 999.7
20260505094005 15 312 6.4 17.7 0.00 0.10 0.00 81 999.7
20260505093525 15 344 4.8 17.7 0.00 0.10 0.00 80 999.6
20260505093004 15 356 4.8 19.3 0.00 0.10 0.00 80 999.7
20260505092504 15 343 4.8 14.5 0.00 0.10 0.00 80 999.6
20260505092026 15 339 4.8 14.5 0.00 0.10 0.00 80 999.3
20260505091525 15 332 6.4 24.1 0.00 0.10 0.00 79 999.3
20260505091005 15 326 6.4 24.1 0.00 0.10 0.00 79 999.3
20260505090504 15 342 4.8 19.3 0.00 0.10 0.00 79 999.1
20260505090005 15 352 4.8 19.3 0.00 0.10 0.00 79 999.3
20260505085504 15 333 3.2 12.9 0.00 0.10 0.00 79 999.2
20260505085005 15 281 4.8 20.9 0.00 0.10 0.00 79 999.1
20260505084526 15 279 6.4 20.9 0.00 0.10 0.00 79 999.1
20260505084004 15 289 4.8 14.5 0.00 0.10 0.00 79 998.9
20260505083525 15 289 4.8 14.5 0.00 0.10 0.00 79 998.9
20260505083005 15 298 3.2 6.4 0.00 0.10 0.00 79 998.9
20260505082504 16 306 4.8 19.3 0.00 0.10 0.00 78 998.7
20260505082025 16 296 3.2 11.3 0.00 0.10 0.00 78 998.6
20260505081505 16 297 4.8 14.5 0.00 0.10 0.00 78 998.7
20260505081004 16 291 6.4 17.7 0.00 0.10 0.00 77 998.5
20260505080504 16 287 8.0 17.7 0.00 0.10 0.00 78 998.4
20260505080004 16 305 6.4 32.2 0.00 0.10 0.00 78 998.5
20260505075504 16 332 6.4 24.1 0.00 0.10 0.00 77 998.7
20260505075004 16 352 6.4 14.5 0.00 0.10 0.00 77 998.5
20260505074504 16 354 6.4 30.6 0.00 0.10 0.00 78 998.4
20260505074005 16 355 4.8 12.9 0.00 0.10 0.00 77 998.5
20260505073504 16 358 4.8 24.1 0.00 0.10 0.00 77 998.5
20260505073004 16 341 6.4 17.7 0.00 0.10 0.00 77 998.6
20260505072504 16 271 4.8 19.3 0.00 0.10 0.00 77 998.5
20260505072004 16 245 3.2 11.3 0.00 0.10 0.00 75 998.4
20260505071504 16 290 3.2 14.5 0.00 0.10 0.00 75 998.5
20260505071004 16 326 3.2 17.7 0.00 0.10 0.00 75 998.5